Starlink 33746

operational
NORAD ID: 63446 Int'l Des: 2025-069 Owner: SPXS Country: US Constellation: starlink
LEOCIRCULAR

Starlink 33746について

説明を読み込み中...

リアルタイム位置

3D地球を読み込み中...

次回通過

高度履歴

Altitude vs Time

uPlot chart will show altitude changes over time

軌道要素

1 63446U 25069P 25352.17075511 .00024005 00000-0 82018-3 0 9992
2 63446 53.1565 161.1341 0001033 81.7080 278.4038 15.30192143 40878
Epoch: Dec 18, 2025 • Age: 15 hours

現在のステータス

高度 475.9 km
速度 7.63 km/s
衛星直下点 25.84°N, 53.2°W
打ち上げ日 Apr 4, 2025
運用期間 0.7 years
タイプ internet

技術仕様

分類 Payload
質量 575.00 kg
乾燥質量 530.00 kg
総質量 575.00 kg
長さ 0.30 m
直径 4.10 m
スパン 29.00 m
形状 Box + pan
製造者 SPXS
バスタイプ Starlink V2MO
フェーズステータス In Orbit
所有者/国 SPXS/US

大規模コンステレーション

Loading constellations...